Track STARLINK-1486 now! 10-day predictions STARLINK-1486 is classified as:
1 45757U 20038AD 21018.65492303 .00000590 00000-0 58563-4 0 9990 2 45757 53.0570 358.4455 0005060 38.4001 321.7347 15.06400213 33703